Location: Ravensburg
(47.7866°N, 9.6124°E)
Time: 03:23:01
(UTC+02:00)

CAS-6 - Pass Details

Date: 17 March 2026
Orbit: 601 x 618 km, 97.8° (Epoch: 14 April)

Event Time Altitude Azimuth Distance (km) Brightness Sun altitude
Exits shadow 21:13:33 15° 21° (NNE) 1,659 ? -27.0°
Drops below altitude 10° 21:14:31 10° 11° (NNE) 1,958 ? -27.2°
Sets 21:17:01 0° 358° (N) 2,868 ? -27.5°
